Weather History for KAOH - April, 2014

Change the Weather History Date:

Thursday, April 10, 2014

  Actual Average (KFDY) Record (KFDY)
Temperature  
Mean Temperature 60 °F -  
Max Temperature 73 °F 53 °F 82 °F (2011)
Min Temperature 46 °F 33 °F 20 °F (1989)
Degree Days  
Heating Degree Days 6    
Growing Degree Days 10 (Base 50)    
Moisture  
Dew Point 40 °F    
Average Humidity 53    
Maximum Humidity 77    
Minimum Humidity 33    
Precipitation  
Precipitation 0.00 in - - ()
Sea Level Pressure  
Sea Level Pressure 29.89 in    
Wind  
Wind Speed 13 mph (SW)    
Max Wind Speed 30 mph    
Max Gust Speed 40 mph    
Visibility 10 miles    
Events Rain    
Averages and records for this station are not official NWS values.
T = Trace of Precipitation, MM = Missing Value Source: NWS Daily Summary

Daily Weather History Graph

Daily Weather History Graph

Search for Another Location

Airport or City:

Trip Planner

Search our weather history database for the weather conditions in past years. The results will help you decide how hot, cold, wet, or windy it might be!

Date:

Astronomy

Apr. 10, 2014 Rise Set
Actual Time 7:05 AM EDT 8:10 PM EDT
Civil Twilight 6:37 AM EDT 8:38 PM EDT
Nautical Twilight 6:03 AM EDT 9:11 PM EDT
Astronomical Twilight 5:28 AM EDT 9:47 PM EDT
Moon 3:51 PM EDT (4/10) 4:28 AM EDT (4/10)
Length of Visible Light 14h 01m
Length of Day
13h 05m
Waxing Gibbous, 79% of the Moon is Illuminated
Apr 10
Waxing Gibbous
Apr 15
Full
Apr 22
Last Quarter
Apr 29
New
May 6
First Quarter

Hourly Weather History & Observations

Time (EDT) Temp. Dew Point Humidity Pressure Visibility Wind Dir Wind Speed Gust Speed Precip Events Conditions
12:53 AM 48.0 °F 36.0 °F 63% 29.99 in 10.0 mi South 8.1 mph - N/A   Clear
1:53 AM 46.9 °F 35.1 °F 63% 29.99 in 10.0 mi SSW 10.4 mph - N/A   Clear
2:53 AM 46.9 °F 35.1 °F 63% 29.99 in 10.0 mi SW 9.2 mph - N/A   Clear
3:53 AM 46.9 °F 35.1 °F 63% 29.97 in 10.0 mi SSW 10.4 mph - N/A   Mostly Cloudy
4:53 AM 46.9 °F 35.1 °F 63% 29.96 in 10.0 mi SSW 9.2 mph - N/A   Clear
5:53 AM 46.9 °F 35.1 °F 63% 29.95 in 10.0 mi South 11.5 mph - N/A   Clear
6:53 AM 48.0 °F 35.1 °F 61% 29.95 in 10.0 mi South 13.8 mph - N/A   Clear
7:53 AM 48.9 °F 35.1 °F 59% 29.95 in 10.0 mi South 15.0 mph 25.3 mph N/A   Clear
8:53 AM 51.1 °F 35.1 °F 54% 29.94 in 10.0 mi South 15.0 mph - N/A   Clear
10:53 AM 59.0 °F 39.0 °F 48% 29.90 in 10.0 mi SSW 18.4 mph 29.9 mph N/A   Clear
11:53 AM 62.1 °F 39.0 °F 43% 29.88 in 10.0 mi SSW 24.2 mph 33.4 mph N/A   Scattered Clouds
12:53 PM 64.0 °F 39.0 °F 40% 29.83 in 10.0 mi SSW 19.6 mph 34.5 mph N/A   Clear
1:53 PM 66.0 °F 39.0 °F 37% 29.80 in 10.0 mi SSW 27.6 mph 40.3 mph N/A   Clear
2:53 PM 70.0 °F 41.0 °F 35% 29.78 in 10.0 mi SSW 25.3 mph 38.0 mph N/A   Clear
3:53 PM 72.0 °F 41.0 °F 33% 29.76 in 10.0 mi SSW 26.5 mph 40.3 mph N/A   Clear
4:53 PM 73.0 °F 43.0 °F 34% 29.77 in 10.0 mi WSW 29.9 mph 40.3 mph N/A   Clear
5:53 PM 72.0 °F 44.1 °F 37% 29.78 in 10.0 mi SW 17.3 mph 24.2 mph N/A   Clear
6:53 PM 68.0 °F 46.9 °F 47% 29.81 in 10.0 mi West 15.0 mph - N/A   Overcast
7:53 PM 66.0 °F 46.9 °F 50% 29.83 in 10.0 mi West 15.0 mph - N/A   Overcast
8:53 PM 64.0 °F 46.9 °F 54% 29.84 in 10.0 mi WSW 9.2 mph - N/A   Overcast
9:53 PM 63.0 °F 46.9 °F 56% 29.88 in 10.0 mi WSW 10.4 mph - N/A   Overcast
10:53 PM 57.0 °F 48.9 °F 74% 29.92 in 10.0 mi NNW 12.7 mph - 0.00 in Rain Light Rain
11:53 PM 55.0 °F 48.0 °F 77% 29.94 in 10.0 mi Calm Calm - 0.00 in   Overcast